[[{"header":{"parameterUnit":"m.s-1","parameterCategory":1,"la1":30.2991,"la2":30.254,"lo1":-89.0895,"lo2":-89.0444,"dy":0.0017,"dx":0.0017,"nx":28,"ny":28,"refTime":"2024-05-27T21:00:00:Z","depth":0,"parameterNumber":2,"parameterNumberName":"U-component_of_WINDS"},"data":[0,0,0,0,0,0,0,0,0,0,0,0,0,0,0,0,0,0,0,0,0,0,0,0,0,0,0,0,0,0,0,0,0,0,0,0,0,0,0,0,0,0,0,0,0,0,0,0,0,0,0,0,0,0,0,0,0,0,-1.01,-1.0099,0,-1.0015,-1.0014,-1.0013,-1.0131,-1.0135,-1.014,-1.0144,-1.0048,-1.0041,-1.0035,0,0,0,0,0,0,0,0,0,0,0,0,0,-1.0359,-1.0354,-1.01,-1.0099,-1.0098,-1.0015,-1.0014,-1.0012,-1.013,-1.0136,-1.0141,-1.0146,-1.005,-1.0042,-1.0034,0,0,0,0,0,0,0,0,0,0,0,0,0,-1.0257,-1.0352,-1.01,-1.0147,-1.015,-1.0015,-1.0014,-1.0012,-1.0129,-1.0136,-1.0142,-1.0148,-1.0052,-1.0043,-1.0033,-0.9846,0,0,-1.0004,-0.9999,0,0,0,0,0,0,0,0,-1.0263,-1.0248,-1.0141,-1.0144,-1.0147,-1.009,-1.007,-0.9956,-1.0128,-1.0137,-1.0144,-1.0151,-1.0056,-1.0047,-1.0016,-0.9841,-0.9837,-1.0003,-0.9997,-0.9993,-0.999,0,0,0,0,0,0,0,-1.027,-1.0252,-1.0066,-1.014,-1.0143,-1.017,-1.0163,-1.0049,-1.0062,-1.0137,-1.0145,-1.0134,-1.0059,-1.0025,-1.0015,-0.9836,-1.0003,-0.9994,-0.9988,-0.9984,-0.9503,-0.9496,0,0,0,0,0,0,-1.0272,-1.0257,-1.0069,-1.0064,-1.0222,-1.016,-1.0152,-1.0102,-1.0063,-1.0064,-1.0128,-1.014,-1.0039,-1.0026,-1.0012,-0.9789,-0.9993,-0.9983,-0.9978,-0.9509,-0.9501,-0.9493,0,0,0,0,0,0,-1.0277,-1.0254,-1.0072,-1.0163,-1.0142,-1.0149,-1.0092,-1.0097,-1.0064,-1.0057,-1.0059,-1.0092,-1.0043,-1.0026,-0.9887,-0.9788,-0.9979,-0.997,-0.9518,-0.9507,-0.9497,-0.9342,0,0,0,0,0,0,-1.0284,-1.0256,-1.0185,-1.016,-1.0136,-0.995,-1.0086,-1.0091,-1.0047,-1.0061,-1.0024,-1.0023,-1.0047,-0.9901,-0.9877,-0.9778,-0.9963,-0.9526,-0.9513,-0.9501,-0.9356,-0.9328,-0.9304,0,0,0,0,0,-1.0293,-1.0143,-1.0181,-1.0158,-1.0049,-0.9944,-0.993,-0.9962,-1.0039,-0.9967,-0.9964,-1.0025,-0.9803,-0.9885,-0.986,-0.9756,-0.9533,-0.9517,-0.9501,-0.9368,-0.9333,-0.9304,0,0,0,0,0,0,-1.0153,-1.0141,-1.0183,-1.0021,-0.9983,-0.9964,-0.9875,-0.9925,-0.9862,-0.9877,-0.9918,-0.9909,-0.976,-0.9745,-0.9837,-0.9573,-0.968,-0.9659,-0.9587,-0.9555,-0.9529,-0.9534,-0.9954,0,0,0,0,0,-1.0104,-1.0022,-1.0015,-0.9872,-0.9852,-0.9866,-0.9822,-0.9851,-0.9812,-0.9795,-0.9781,-0.9739,-0.9661,-0.9607,-0.9534,-0.9356,-0.9348,-0.9272,-0.9246,-0.9224,-0.9204,-0.9108,-0.9073,-0.9442,-0.9442,-0.9443,0,0,-1.0,-0.9984,-0.9928,-0.9844,-0.9818,-0.973,-0.9852,-0.9753,-0.9687,-0.9779,-0.9648,-0.9636,-0.9592,-0.9433,-0.9362,-0.9415,-0.9101,-0.9204,-0.9187,-0.9178,-0.9088,-0.9053,-0.9022,-0.9432,-0.9433,-0.9435,0,0,-0.9766,-0.9746,-0.9625,-0.9598,-0.9558,-0.957,-0.9541,-0.9515,-0.9511,-0.9381,-0.9449,-0.937,-0.9234,-0.92,-0.9164,-0.892,-0.8973,-0.8895,-0.8756,-0.8662,-0.8633,-0.8607,-0.8519,-0.8487,-0.8876,-0.8875,-0.8875,0,-0.9641,-0.9513,-0.9556,-0.9453,-0.9413,-0.9497,-0.9374,-0.9344,-0.9281,-0.9251,-0.9313,-0.9144,-0.912,-0.8954,-0.8895,-0.8864,-0.883,-0.8898,-0.8634,-0.8609,-0.8586,-0.8501,-0.8468,-0.8866,-0.8867,-0.8868,-0.8869,0,-0.9361,-0.9271,-0.9178,-0.9119,-0.9069,-0.8956,-0.898,-0.8925,-0.8959,-0.8963,-0.8828,-0.8804,-0.8727,-0.869,-0.8721,-0.8528,-0.8562,-0.8628,-0.8737,-0.854,-0.8462,-0.843,-0.8852,-0.8856,-0.8859,-0.8861,0,0,-0.9032,-0.9001,-0.8966,-0.894,-0.8904,-0.8835,-0.8726,-0.8654,-0.8605,-0.8559,-0.8468,-0.8352,-0.8413,-0.8373,-0.8401,-0.8319,-0.8126,-0.8396,-0.8395,-0.8345,-0.791,-0.7859,-0.7821,-0.8163,-0.8157,-0.8152,-0.7913,0,-0.8797,-0.8612,-0.8648,-0.8466,-0.8383,-0.8462,-0.8368,-0.8334,-0.8336,-0.8264,-0.8265,-0.8182,-0.8271,-0.8247,-0.8169,-0.8166,-0.8039,-0.8184,-0.8075,-0.807,-0.8081,-0.778,-0.7725,-0.7501,-0.7883,-0.7878,-0.7874,0,-0.8498,-0.8445,-0.8254,-0.8233,-0.82,-0.8114,-0.8052,-0.7983,-0.7946,-0.7954,-0.791,-0.7954,-0.7844,-0.7957,-0.7805,-0.7903,-0.7861,-0.7852,-0.7845,-0.7833,-0.7958,-0.7758,-0.743,-0.7395,-0.7826,-0.783,-0.7834,0,-0.8275,-0.8156,-0.8027,-0.8003,-0.7975,-0.7913,-0.7898,-0.7868,-0.7823,-0.7768,-0.7739,-0.7671,-0.7633,-0.7578,-0.7602,-0.7683,-0.7445,-0.756,-0.7445,-0.7444,-0.7389,-0.7391,-0.7047,-0.7366,-0.7366,-0.7367,-0.7367,0,-0.8007,-0.7887,-0.7927,-0.7847,-0.7715,-0.7758,-0.7625,-0.762,-0.7593,-0.7512,-0.7577,-0.7499,-0.7537,-0.7461,-0.7479,-0.735,-0.7332,-0.7333,-0.7339,-0.7326,-0.7325,-0.7296,-0.7312,-0.7358,-0.736,-0.7362,-0.7363,0,-0.7734,-0.7757,-0.7621,-0.7607,-0.7601,-0.7504,-0.7491,-0.7416,-0.7425,-0.7321,-0.7299,-0.7311,-0.7225,-0.7245,-0.7151,-0.7163,-0.7,-0.7026,-0.7012,-0.7018,-0.6901,-0.6911,-0.6524,-0.6475,-0.6827,-0.6824,-0.6821,0,-0.7561,-0.7471,-0.7449,-0.7401,-0.7382,-0.7303,-0.7259,-0.7298,-0.7249,-0.7202,-0.7131,-0.7053,-0.6991,-0.6851,-0.6849,-0.6778,-0.6801,-0.6671,-0.679,-0.678,-0.6797,-0.6801,-0.6791,-0.6646,-0.6642,-0.6638,-0.6636,0,-0.725,-0.7266,-0.7201,-0.7139,-0.7085,-0.7038,-0.6996,-0.6952,-0.6989,-0.6929,-0.6845,-0.6798,-0.6704,-0.6623,-0.6558,-0.654,-0.6592,-0.6599,-0.6568,-0.6552,-0.6547,-0.6547,-0.6945,-0.6606,-0.6609,-0.6611,-0.6613,-0.6614,-0.702,-0.6944,-0.6917,-0.6842,-0.6816,-0.6776,-0.6705,-0.6706,-0.6637,-0.6565,-0.6593,-0.6495,-0.6462,-0.6379,-0.6354,-0.6277,-0.6326,-0.6282,-0.627,-0.6258,-0.6243,-0.6562,-0.6265,-0.6266,-0.6267,-0.6268,-0.6268,0,-0.6711,-0.6698,-0.6629,-0.6571,-0.6512,-0.6571,-0.6529,-0.6474,-0.6389,-0.6355,-0.6294,-0.6197,-0.612,-0.6114,-0.6042,-0.5981,-0.6003,-0.596,-0.5964,-0.5958,-0.6204,-0.6237,-0.5944,-0.5944,-0.5944,-0.5944,-0.5944,-0.5944,-0.6543,-0.6417,-0.643,-0.6292,-0.6281,-0.6188,-0.6158,-0.6121,-0.6095,-0.5984,-0.5922,-0.592,-0.5896,-0.5823,-0.5755,-0.5755,-0.5724,-0.5672,-0.568,-0.5909,-0.5941,-0.5972,-0.6003,-0.5665,-0.5665,-0.5441,-0.5439,-0.5438]},{"header":{"parameterUnit":"m.s-1","parameterCategory":1,"la1":30.2991,"la2":30.254,"lo1":-89.0895,"lo2":-89.0444,"dy":0.0017,"dx":0.0017,"nx":28,"ny":28,"refTime":"2024-05-27T21:00:00:Z","depth":0,"parameterNumber":3,"parameterNumberName":"V-component_of_WINDS"},"data":[0,0,0,0,0,0,0,0,0,0,0,0,0,0,0,0,0,0,0,0,0,0,0,0,0,0,0,0,0,0,0,0,0,0,0,0,0,0,0,0,0,0,0,0,0,0,0,0,0,0,0,0,0,0,0,0,0,0,-0.5716,-0.5716,0,-0.5768,-0.5768,-0.5769,-0.5807,-0.5807,-0.5807,-0.5808,-0.5861,-0.5863,-0.5864,0,0,0,0,0,0,0,0,0,0,0,0,0,-0.5649,-0.565,-0.5715,-0.5716,-0.5717,-0.5768,-0.5768,-0.5769,-0.5807,-0.5807,-0.5808,-0.5808,-0.5861,-0.5862,-0.5864,0,0,0,0,0,0,0,0,0,0,0,0,0,-0.5687,-0.5651,-0.5715,-0.5742,-0.5745,-0.5768,-0.5768,-0.5769,-0.5807,-0.5807,-0.5808,-0.5808,-0.5861,-0.5862,-0.5864,-0.5865,0,0,-0.5869,-0.587,0,0,0,0,0,0,0,0,-0.5685,-0.569,-0.5737,-0.574,-0.5743,-0.5781,-0.5765,-0.5801,-0.5807,-0.5783,-0.5808,-0.5808,-0.5834,-0.5838,-0.5847,-0.5868,-0.587,-0.5869,-0.587,-0.5871,-0.5872,0,0,0,0,0,0,0,-0.5683,-0.5688,-0.5736,-0.5738,-0.5742,-0.5751,-0.5757,-0.5772,-0.5805,-0.5785,-0.5788,-0.5794,-0.5836,-0.5845,-0.5849,-0.5871,-0.5869,-0.5871,-0.5872,-0.5872,-0.5897,-0.5896,0,0,0,0,0,0,-0.5676,-0.5685,-0.5735,-0.5738,-0.5715,-0.5752,-0.5759,-0.5769,-0.5805,-0.5811,-0.5793,-0.5795,-0.5842,-0.5847,-0.5851,-0.5856,-0.5871,-0.5873,-0.5874,-0.5897,-0.5897,-0.5896,0,0,0,0,0,0,-0.5674,-0.568,-0.5732,-0.5712,-0.572,-0.5753,-0.5763,-0.5769,-0.5779,-0.5812,-0.5818,-0.5796,-0.5843,-0.5848,-0.5862,-0.5858,-0.5873,-0.5875,-0.5898,-0.5897,-0.5896,-0.5865,0,0,0,0,0,0,-0.5672,-0.5679,-0.5679,-0.5712,-0.5721,-0.5742,-0.5763,-0.577,-0.5781,-0.5785,-0.5816,-0.5822,-0.5844,-0.5859,-0.5863,-0.5861,-0.5876,-0.5898,-0.5897,-0.5897,-0.5866,-0.5863,-0.5861,0,0,0,0,0,-0.567,-0.5668,-0.5679,-0.5685,-0.5722,-0.5742,-0.5747,-0.5772,-0.5781,-0.5782,-0.5803,-0.5821,-0.5858,-0.586,-0.5865,-0.5863,-0.5898,-0.5897,-0.5897,-0.5868,-0.5864,-0.5861,0,0,0,0,0,0,-0.5633,-0.5673,-0.5685,-0.5694,-0.5714,-0.5748,-0.575,-0.5767,-0.5784,-0.5787,-0.5817,-0.5824,-0.5834,-0.585,-0.5852,-0.5867,-0.588,-0.588,-0.5856,-0.5853,-0.585,-0.5847,-0.5878,0,0,0,0,0,-0.5626,-0.5639,-0.5673,-0.5677,-0.5687,-0.5717,-0.5726,-0.5744,-0.5766,-0.5775,-0.5797,-0.5818,-0.5834,-0.5844,-0.5861,-0.5869,-0.5877,-0.587,-0.5867,-0.5865,-0.5865,-0.5871,-0.5869,-0.5893,-0.5893,-0.5893,0,0,-0.5612,-0.5635,-0.5641,-0.5671,-0.5688,-0.5701,-0.5723,-0.5736,-0.5746,-0.5776,-0.5791,-0.5808,-0.5833,-0.5844,-0.585,-0.5858,-0.586,-0.5864,-0.5861,-0.5863,-0.587,-0.5868,-0.5866,-0.5893,-0.5893,-0.5893,0,0,-0.5593,-0.5611,-0.5618,-0.5635,-0.5662,-0.5682,-0.5684,-0.5715,-0.5728,-0.5743,-0.5767,-0.5779,-0.5806,-0.5824,-0.5837,-0.5826,-0.5843,-0.5831,-0.5816,-0.5822,-0.582,-0.5819,-0.5816,-0.5815,-0.583,-0.583,-0.583,0,-0.5572,-0.5592,-0.5619,-0.5631,-0.5644,-0.5672,-0.568,-0.5695,-0.5726,-0.5735,-0.5742,-0.5779,-0.5798,-0.5814,-0.5811,-0.582,-0.5824,-0.5827,-0.5818,-0.5817,-0.5816,-0.5814,-0.5813,-0.5829,-0.5829,-0.5829,-0.5829,0,-0.5566,-0.558,-0.5582,-0.5612,-0.5625,-0.5634,-0.5663,-0.5673,-0.569,-0.5709,-0.5725,-0.5749,-0.5772,-0.5777,-0.5793,-0.5796,-0.58,-0.5813,-0.5827,-0.5812,-0.5811,-0.581,-0.5826,-0.5827,-0.5828,-0.5828,0,0,-0.5525,-0.557,-0.5571,-0.5585,-0.5617,-0.5629,-0.564,-0.5663,-0.5672,-0.5692,-0.5703,-0.5726,-0.5739,-0.5753,-0.5772,-0.5777,-0.5769,-0.579,-0.5791,-0.5786,-0.5775,-0.5766,-0.5765,-0.578,-0.578,-0.578,-0.5774,0,-0.5511,-0.5533,-0.5558,-0.5572,-0.5586,-0.5614,-0.5624,-0.5645,-0.5664,-0.5679,-0.5699,-0.5716,-0.573,-0.574,-0.5746,-0.5768,-0.5767,-0.5769,-0.5792,-0.5792,-0.5785,-0.5764,-0.5754,-0.5746,-0.5773,-0.5773,-0.5773,0,-0.5499,-0.5519,-0.5533,-0.5566,-0.5573,-0.5581,-0.5605,-0.5619,-0.5644,-0.5657,-0.5674,-0.5694,-0.5709,-0.572,-0.5741,-0.5742,-0.5753,-0.5765,-0.5766,-0.5769,-0.5782,-0.5768,-0.5744,-0.5743,-0.5772,-0.5772,-0.5772,0,-0.5469,-0.5499,-0.5513,-0.5524,-0.5562,-0.5568,-0.5584,-0.5609,-0.5622,-0.5643,-0.5652,-0.5674,-0.5686,-0.5703,-0.5729,-0.5735,-0.5748,-0.5761,-0.576,-0.5759,-0.5762,-0.5761,-0.574,-0.5767,-0.5767,-0.5767,-0.5767,0,-0.5452,-0.546,-0.55,-0.5508,-0.5519,-0.5548,-0.5558,-0.5576,-0.5599,-0.5612,-0.5637,-0.5649,-0.5682,-0.5698,-0.5719,-0.5734,-0.5739,-0.5751,-0.5756,-0.5749,-0.5747,-0.5757,-0.5758,-0.5767,-0.5767,-0.5767,-0.5767,0,-0.542,-0.5447,-0.5464,-0.5499,-0.5508,-0.5514,-0.5545,-0.5554,-0.5575,-0.5591,-0.5596,-0.5629,-0.5649,-0.5677,-0.5705,-0.5719,-0.5731,-0.5739,-0.5723,-0.5726,-0.5724,-0.5724,-0.5709,-0.5709,-0.5734,-0.5734,-0.5734,0,-0.5408,-0.5415,-0.5451,-0.5462,-0.5478,-0.5494,-0.5508,-0.5537,-0.555,-0.558,-0.5586,-0.5608,-0.5628,-0.5659,-0.5685,-0.5708,-0.5717,-0.571,-0.5721,-0.5714,-0.5718,-0.5718,-0.572,-0.5708,-0.5707,-0.5707,-0.5707,0,-0.5384,-0.5397,-0.5415,-0.5439,-0.5454,-0.5474,-0.5495,-0.5502,-0.5536,-0.555,-0.5571,-0.5586,-0.5616,-0.5638,-0.5664,-0.5681,-0.57,-0.5703,-0.5704,-0.5697,-0.5688,-0.5694,-0.5717,-0.5704,-0.5704,-0.5704,-0.5704,-0.5704,-0.5362,-0.5371,-0.5398,-0.5418,-0.5437,-0.5456,-0.5468,-0.549,-0.5508,-0.5535,-0.5551,-0.5572,-0.5599,-0.5636,-0.5652,-0.567,-0.5677,-0.5678,-0.5679,-0.5679,-0.5677,-0.5685,-0.5674,-0.5674,-0.5675,-0.5675,-0.5675,0,-0.5341,-0.536,-0.5378,-0.5407,-0.5423,-0.5439,-0.5464,-0.5476,-0.5494,-0.5518,-0.5537,-0.5562,-0.5584,-0.5612,-0.5636,-0.5645,-0.5654,-0.565,-0.565,-0.5654,-0.5668,-0.5665,-0.5642,-0.5642,-0.5642,-0.5642,-0.5642,-0.5642,-0.5331,-0.5347,-0.5364,-0.5389,-0.5409,-0.5429,-0.5442,-0.5461,-0.548,-0.5506,-0.5525,-0.5544,-0.5569,-0.5596,-0.5617,-0.5625,-0.5634,-0.5627,-0.5638,-0.565,-0.5653,-0.5656,-0.5654,-0.5628,-0.5628,-0.5623,-0.5623,-0.5623]}]]